星链-37180(STARLINK-37180)

导读

STARLINK-37180(NORAD编号68333)是美国SpaceX公司星链(Starlink)星座的一颗低轨通信卫星,归属星链第二代mini批次生产,运行于距地约550公里近地轨道。 作为全球最大规模卫星互联网系统的组成单元,该星配备相控阵天线与激光星间链路,搭载氩气离子推进系统实现轨道机动,依托多波束设计提供低延迟高带宽通信服务,可同时连接大量地面终端,支撑全球全域互联网接入。 它也延续了星链卫星4-5年设计寿命,到期后将受控离轨,由新一代卫星迭代替代。

Basic Information
目录编号:
68333
目录名称:
STARLINK-37180
国际标识:
2026-059N
轨道中心:
EARTH
卫星名称:
星链-37180
卫星全名:
星链-37180(STARLINK-37180)
卫星状态:
在轨 (已飞行175 天)
发射日期:
2026-03-22 UTC
国别 :
美国 (US)
星等 :
--
This satellite is enrolled in the Space Conjunction Data Service (SCDS) and the current flight risk assessment level is: No High Risk
Orbit Information
数据来源 国际轨道数据
星历时间: 2026-09-13T10:41:41+0800
8小时前
查看轨道信息
半长轴: 6840.839km
偏心率: 0.0001038
轨道倾角: 53.159°
近地点辐角 77.022°
升交点赤经 190.414°
平近点角 283.090°
近地点: 461.991km
远地点: 463.413km
周期: 93.848分钟
每日圈数: 15.344005
Detailed Information
固有亮度:
5
最大亮度:
2.5
卫星平台:
Starlink V1.0
覆盖范围:
全球
运营商:
太空探索技术公司
运营商所在国:
美国
制造商(研发单位):
太空探索技术公司
制造商所在国:
美国
使用方式:
暂无
Satellite Introduction
Starlink 计划是 SpaceX 推出的全球卫星互联网项目,通过发射低轨道卫星,为全球尤其是偏远地区提供高速、低延迟的互联网服务。自 2019 年起,Starlink 已部署数千颗卫星,旨在缩小全球数字鸿沟,推动互联网普及。该项目还为军事、航空等行业提供通信支持,带来广泛经济效益。
2D Orbit Map
3D Orbit Map
Orbit Altitude Analysis Chart
Orbit Inclination Analysis Chart
Orbit Comprehensive Analysis Chart
View Comprehensive Chart
Conjunction Data List
Event ID Objects TCA Miss Dist (km) Collision Risk Probability Collision Risk Index (CRI) Action
CDM_260914-021404-846806-833321
2026-09-14T
02:14:31+0000
0.958 km
远距离
2.692351E-5 中风险 0.64
CDM_260914-135704-846806-833321
2026-09-14T
13:57:54+0000
1.307 km
极远距离
9.164374E-6 低风险 0.54
CDM_260913-211406-268006-833321
2026-09-13T
21:14:41+0000
2.391 km
极远距离
1.876893E-6 低风险 0.4
CDM_260914-145204-945806-833321
2026-09-14T
14:52:33+0000
2.908 km
极远距离
1.090126E-6 低风险 0.36
Miss Distance Evolution Trend with All Objects
Collision Probability Evolution Trend with All Objects